EST,Max TemperatureF,Mean TemperatureF,Min TemperatureF,Max Dew PointF,MeanDew PointF,Min DewpointF,Max Humidity, Mean Humidity, Min Humidity, Max Sea Level PressureIn, Mean Sea Level PressureIn, Min Sea Level PressureIn, Max VisibilityMiles, Mean VisibilityMiles, Min VisibilityMiles, Max Wind SpeedMPH, Mean Wind SpeedMPH, Max Gust SpeedMPH,PrecipitationIn, CloudCover, Events, WindDirDegrees
2012-11-1,79,72,66,70,61,57,78,63,48,30.09,30.05,30.01,9,7,6,12,6,,0.00,3,,263
2012-11-2,81,72,63,69,64,55,83,68,53,30.09,30.05,30.00,9,7,6,10,4,,0.00,1,,273
2012-11-3,80,72,65,68,63,55,94,72,44,30.13,30.09,30.05,9,7,6,9,2,,0.00,3,,348
2012-11-4,81,72,62,71,62,57,94,73,52,30.11,30.07,30.02,9,7,6,9,2,,0.00,1,,58
2012-11-5,81,73,65,68,64,59,94,71,51,30.03,29.99,29.94,9,7,6,7,1,,0.00,6,,292
2012-11-6,83,76,69,73,65,59,88,69,54,29.97,29.91,29.88,9,7,6,5,1,,0.00,6,,176
2012-11-7,82,76,71,72,65,57,88,69,58,29.94,29.88,29.85,9,7,6,14,7,,0.00,3,Rain,251
2012-11-8,75,72,68,68,57,50,94,60,37,30.09,30.01,29.93,9,7,6,16,12,,0.00,3,,290
2012-11-9,78,71,64,59,55,52,64,53,37,30.17,30.11,29.95,9,7,6,17,9,,0.00,3,,354
2012-11-10,80,74,69,61,57,54,61,54,43,30.23,30.18,30.12,9,7,6,15,9,,0.00,6,,28
2012-11-11,80,73,66,70,62,56,78,63,45,30.22,30.18,30.15,9,7,6,16,8,30,0.00,3,Rain,44
2012-11-12,80,74,69,70,67,64,88,73,60,30.18,30.12,30.07,9,7,6,21,13,,0.00,3,Rain,36
2012-11-13,81,76,71,72,68,63,78,71,57,30.10,30.05,30.01,9,7,6,16,12,,0.00,4,,22
2012-11-14,81,76,70,72,67,64,83,72,59,30.09,30.04,30.00,9,7,4,17,8,,0.00,4,,34
2012-11-15,81,76,70,68,64,61,73,65,49,30.07,30.04,30.01,9,7,6,12,7,,0.00,2,,15
2012-11-16,81,76,71,71,65,63,93,69,54,30.08,30.03,29.99,9,7,6,12,6,,0.00,3,,18
2012-11-17,81,76,70,70,68,66,94,78,68,30.08,30.02,29.99,9,7,6,12,6,,0.01,4,Rain,36
2012-11-18,85,77,69,74,69,64,89,78,51,30.08,30.03,29.99,9,7,6,13,6,,0.08,4,Rain,360
2012-11-19,79,76,73,67,65,61,78,70,57,30.09,30.02,29.97,9,7,6,12,8,,0.00,2,,301
2012-11-20,79,74,70,72,68,64,89,78,61,29.99,29.93,29.89,9,7,4,16,9,,0.12,4,Rain,281
2012-11-21,80,76,71,68,65,62,83,69,51,29.95,29.90,29.87,9,7,6,14,8,,0.00,3,Rain,305
2012-11-22,79,74,70,63,59,55,73,59,42,29.99,29.96,29.92,9,7,6,20,15,,0.00,2,,292
2012-11-23,78,72,66,68,63,57,83,68,51,30.06,30.03,30.00,9,7,6,16,12,,0.31,4,Rain,318
2012-11-24,78,74,69,65,60,57,78,61,42,30.08,30.03,29.99,9,7,6,14,7,,0.00,2,,290
2012-11-25,79,70,62,63,59,55,83,66,46,30.14,30.09,30.04,9,7,6,12,2,,0.00,2,,352
2012-11-26,79,70,62,66,62,57,83,70,53,30.22,30.16,30.09,9,7,6,14,3,,0.00,2,,38
2012-11-27,80,72,65,69,66,63,94,79,61,30.20,30.15,30.10,9,7,6,9,2,,0.00,4,,54
2012-11-28,80,72,64,72,65,59,94,76,59,30.16,30.12,30.09,9,7,6,12,4,,0.00,5,,325
2012-11-29,80,76,69,68,66,64,88,72,57,30.19,30.14,30.10,9,7,4,21,10,,0.31,4,Rain,30
2012-11-30,79,73,67,68,65,63,88,72,52,30.18,30.13,30.09,9,7,6,18,12,24,0.03,7,Rain,37